GW5466 Weather Reports


time (UTC)temp
F
wind
direction
speed
knots
gust
knots
rain 1hr
in
rain 24hr
in
rain mn
in
humidity
%
barometer
mb
20260505113932 48 78 1.7 2.6 0.03 0.00 0.41 84 1009.7
20260505113432 48 353 0.9 2.6 0.03 0.00 0.40 83 1009.7
20260505112902 49 46 2.6 3.5 0.03 0.00 0.40 80 1009.6
20260505112332 49 60 1.7 3.5 0.02 0.00 0.39 77 1009.7
20260505111832 50 38 4.3 4.3 0.02 0.00 0.39 75 1009.6
20260505111332 50 2 3.5 4.3 0.00 0.00 0.38 74 1009.2
20260505110832 50 277 1.7 5.2 0.00 0.00 0.37 74 1009.5
20260505110332 50 76 2.6 5.2 0.00 0.00 0.37 74 1009.5
20260505102132 49 56 4.3 5.2 0.00 0.00 0.37 79 1009.3
20260505101632 49 338 1.7 5.2 0.00 0.00 0.37 81 1009.0
20260505101132 49 39 1.7 3.5 0.00 0.00 0.37 83 1009.0
20260505100632 49 358 1.7 6.1 0.00 0.00 0.37 82 1009.3
20260505100132 49 356 2.6 5.2 0.00 0.00 0.37 83 1009.4
20260505095632 49 53 1.7 4.3 0.00 0.00 0.37 83 1009.5
20260505095132 49 28 1.7 2.6 0.00 0.00 0.37 83 1009.6
20260505094852 49 92 1.7 2.6 0.00 0.00 0.37 83 1009.6
20260505094353 49 75 0.9 2.6 0.00 0.00 0.37 81 1009.4
20260505093632 49 73 3.5 5.2 0.00 0.00 0.37 81 1009.3
20260505093351 49 72 2.6 3.5 0.00 0.00 0.37 80 1009.3
20260505092602 49 32 1.7 5.2 0.00 0.00 0.37 81 1008.9
20260505092324 49 39 3.5 4.3 0.00 0.00 0.37 81 1008.5
20260505091602 49 58 1.7 4.3 0.00 0.00 0.37 81 1008.8
20260505091102 49 21 2.6 4.3 0.00 0.00 0.37 81 1008.6
20260505090823 49 16 2.6 5.2 0.02 0.00 0.37 81 1008.2
20260505085602 49 17 3.5 7.0 0.08 0.00 0.37 80 1007.5
20260505085102 49 42 1.7 5.2 0.09 0.00 0.37 82 1007.1
20260505084754 49 326 2.6 7.0 0.12 0.00 0.37 81 1007.0
20260505084032 49 86 6.1 12.2 0.15 0.00 0.37 81 1007.3
20260505083752 48 17 2.6 4.3 0.18 0.00 0.37 86 1007.1
20260505083002 48 359 2.6 7.0 0.20 0.00 0.37 87 1007.0
20260505082432 48 10 2.6 3.5 0.25 0.00 0.37 88 1006.7
20260505081932 49 61 2.6 4.3 0.26 0.00 0.37 88 1006.8
20260505081432 49 162 0.9 5.2 0.28 0.00 0.37 88 1006.9
20260505080932 49 70 3.5 7.0 0.28 0.00 0.35 88 1005.2
20260505080624 49 27 3.5 5.2 0.25 0.00 0.32 86 1007.0
20260505075902 50 322 1.7 5.2 0.23 0.00 0.30 85 1007.4
20260505075402 50 31 0.9 4.3 0.22 0.00 0.28 84 1008.0
20260505074909 51 76 2.6 3.5 0.19 0.00 0.25 84 1008.4
20260505074402 51 344 1.7 3.5 0.17 0.00 0.22 81 1008.6
20260505073902 51 28 2.6 4.3 0.15 0.00 0.19 83 1008.7
20260505073402 52 242 1.7 2.6 0.13 0.00 0.18 79 1008.8
20260505072832 53 45 4.3 5.2 0.10 0.00 0.15 77 1009.1
20260505072302 54 44 1.7 3.5 0.08 0.00 0.12 75 1008.9
20260505071954 54 321 0.9 3.5 0.06 0.00 0.10 76 1009.0
20260505071232 55 227 0.0 5.2 0.05 0.00 0.09 74 1008.6
20260505070732 55 348 0.9 2.6 0.04 0.00 0.08 70 1007.8
20260505070232 56 78 1.7 3.5 0.03 0.00 0.07 69 1007.9
20260505065732 56 89 0.0 3.5 0.03 0.00 0.06 65 1007.7
20260505065232 57 314 1.7 3.5 0.02 0.00 0.06 61 1007.3
20260505064732 58 30 1.7 3.5 0.02 0.00 0.05 57 1006.9
20260505064232 59 2 4.3 5.2 0.02 0.00 0.05 55 1006.9
20260505063954 59 20 2.6 5.2 0.01 0.00 0.04 53 1006.6
20260505063451 59 33 2.6 4.3 0.01 0.00 0.04 55 1006.5
20260505062702 59 54 4.3 7.0 0.02 0.00 0.04 56 1005.8
20260505062202 60 26 3.5 7.0 0.01 0.00 0.04 59 1006.0
20260505061702 60 8 1.7 6.1 0.01 0.00 0.04 59 1006.4
20260505061648 60 297 1.7 4.3 0.02 0.00 0.04 63 1006.0
20260505060702 59 39 0.0 2.6 0.02 0.00 0.04 67 1005.7
20260505060202 59 30 0.9 3.5 0.02 0.00 0.04 71 1005.3
20260505055921 59 3 0.9 2.6 0.04 0.00 0.04 71 1004.9
20260505055202 60 39 0.0 2.6 0.04 0.00 0.04 70 1004.7
20260505054702 60 21 0.9 2.6 0.04 0.00 0.04 70 1004.8
20260505054616 60 30 0.9 2.6 0.04 0.00 0.03 69 1004.6
20260505053632 60 51 0.9 3.5 0.04 0.00 0.03 69 1004.7
20260505053132 59 59 1.7 3.5 0.04 0.00 0.03 70 1004.7
20260505052602 59 29 1.7 3.5 0.03 0.00 0.03 75 1004.7
20260505052323 60 13 0.9 4.3 0.03 0.00 0.03 76 1004.4
20260505051751 60 326 1.7 4.3 0.03 0.00 0.02 75 1004.7
20260505051252 61 58 1.7 3.5 0.02 0.00 0.02 74 1004.0
20260505050753 63 29 2.6 5.2 0.02 0.00 0.02 68 1004.5
20260505050254 67 358 2.6 5.2 0.00 0.00 0.00 54 1003.9
20260505041402 72 269 0.0 3.5 0.00 0.00 0.00 66 1003.2
20260505040902 72 316 1.7 1.7 0.00 0.00 0.00 67 1002.9
20260505040402 72 280 1.7 1.7 0.00 0.00 0.00 67 1002.6
20260505035902 72 297 0.9 1.7 0.00 0.00 0.00 66 1002.8
20260505035624 72 228 0.0 1.7 0.00 0.00 0.00 66 1002.7
20260505034832 72 287 0.0 2.6 0.00 0.00 0.00 66 1002.7
20260505034332 72 236 0.9 1.7 0.00 0.00 0.00 66 1002.8
20260505033832 72 266 2.6 3.5 0.00 0.00 0.00 66 1002.7
20260505033332 72 283 0.0 3.5 0.00 0.00 0.00 65 1002.7
20260505032832 72 306 0.0 1.7 0.00 0.00 0.00 65 1002.9
20260505032304 72 305 0.0 1.7 0.00 0.00 0.00 64 1002.8
20260505031732 72 214 2.6 3.5 0.00 0.00 0.00 64 1002.7
20260505031232 72 293 0.0 1.7 0.00 0.00 0.00 63 1002.7
20260505030732 72 235 0.0 0.0 0.00 0.00 0.00 63 1002.4
20260505030232 72 269 0.0 1.7 0.00 0.00 0.00 63 1002.5
20260505025924 71 274 0.9 1.7 0.00 0.00 0.00 64 1002.6
20260505025202 69 266 1.7 2.6 0.00 0.00 0.00 66 1002.2
20260505024702 69 50 0.0 0.0 0.00 0.00 0.00 65 1002.5
20260505024202 69 55 0.0 0.0 0.00 0.00 0.00 65 1002.2
20260505023632 69 37 0.0 0.9 0.00 0.00 0.00 64 1002.1
20260505023132 69 22 0.0 0.0 0.00 0.00 0.00 64 1002.2
20260505022602 69 50 0.0 0.0 0.00 0.00 0.00 63 1002.2
20260505022102 69 44 0.0 0.0 0.00 0.00 0.00 63 1002.0
20260505021602 70 13 0.0 0.9 0.00 0.00 0.00 63 1001.7
20260505021102 70 55 0.0 0.9 0.00 0.00 0.00 62 1001.9
20260505021017 70 50 0.0 0.0 0.00 0.00 0.00 61 1001.7
20260505020032 71 44 0.0 0.0 0.00 0.00 0.00 61 1001.7
20260505015532 71 32 0.0 0.0 0.00 0.00 0.00 60 1001.7
20260505015032 72 242 0.0 0.0 0.00 0.00 0.00 59 1001.8
20260505014502 72 242 0.0 0.0 0.00 0.00 0.00 58 1001.5
20260505014224 72 242 0.0 0.0 0.00 0.00 0.00 57 1001.6
20260505013502 72 242 0.0 0.0 0.00 0.00 0.00 57 1001.3
20260505012932 73 242 0.0 0.0 0.00 0.00 0.00 56 1001.3
20260505012432 73 224 0.0 0.0 0.00 0.00 0.00 56 1001.4
20260505011932 74 24 0.0 0.0 0.00 0.00 0.00 56 1001.5
20260505011402 74 315 0.0 0.0 0.00 0.00 0.00 54 1001.4
20260505010902 75 315 0.0 0.0 0.00 0.00 0.00 53 1001.3
20260505010621 75 333 0.0 0.0 0.00 0.00 0.00 53 1001.2
20260505005902 76 25 0.0 0.0 0.00 0.00 0.00 52 1001.2
20260505005623 77 315 0.0 0.0 0.00 0.00 0.00 50 1001.2
20260505004902 77 315 0.0 0.0 0.00 0.00 0.00 49 1001.0
20260505004846 78 315 0.0 0.0 0.00 0.00 0.00 48 1001.0
20260505003902 78 315 0.0 0.0 0.00 0.00 0.00 47 1000.8
20260505003332 79 242 0.0 0.9 0.00 0.00 0.00 46 1001.0
20260505002832 79 172 0.0 0.9 0.00 0.00 0.00 46 1000.8
20260505002304 79 309 0.0 0.9 0.00 0.00 0.00 46 1000.7
20260505002024 80 310 0.0 0.9 0.00 0.00 0.00 46 1000.8
20260505001232 80 269 0.0 1.7 0.00 0.00 0.00 45 1000.7
20260505000732 80 251 0.9 0.9 0.00 0.00 0.00 45 1001.0
20260505000233 80 290 0.0 1.7 0.00 0.00 0.00 45 1001.0
20260504235923 80 224 0.9 2.6 0.00 0.00 0.00 44 1001.0
20260504235202 80 333 0.0 0.9 0.00 0.00 0.00 44 1001.0
20260504234921 80 240 0.0 1.7 0.00 0.00 0.00 44 1001.0
20260504234202 80 186 0.0 1.7 0.00 0.00 0.00 43 1000.8
20260504233632 80 252 0.0 3.5 0.00 0.00 0.00 43 1001.1
20260504233132 80 288 0.0 3.5 0.00 0.00 0.00 43 1001.1
20260504232602 80 295 0.0 2.6 0.00 0.00 0.00 42 1001.2
20260504232102 81 279 0.9 1.7 0.00 0.00 0.00 42 1000.9
20260504231602 81 230 1.7 3.5 0.00 0.00 0.00 41 1000.9
20260504231102 81 268 0.9 2.6 0.00 0.00 0.00 42 1001.1
20260504230532 81 269 1.7 2.6 0.00 0.00 0.00 41 1001.2
20260504230251 82 267 0.0 2.6 0.00 0.00 0.00 41 1001.2
20260504225532 82 304 1.7 1.7 0.00 0.00 0.00 41 1001.2
20260504225002 82 235 1.7 3.5 0.00 0.00 0.00 40 1001.1
20260504224721 81 316 0.0 2.6 0.00 0.00 0.00 40 1001.1
20260504224002 81 319 0.0 3.5 0.00 0.00 0.00 41 1001.3
20260504223502 81 250 0.0 2.6 0.00 0.00 0.00 40 1001.1
20260504222932 81 262 0.9 1.7 0.00 0.00 0.00 40 1001.1
20260504222402 81 313 0.0 1.7 0.00 0.00 0.00 41 1001.2
20260504221902 81 231 3.5 4.3 0.00 0.00 0.00 39 1001.2
20260504221332 81 286 2.6 2.6 0.00 0.00 0.00 41 1001.4
20260504220802 81 249 1.7 3.5 0.00 0.00 0.00 40 1001.4
20260504220522 81 276 1.7 2.6 0.00 0.00 0.00 41 1001.2
20260504215802 81 210 1.7 5.2 0.00 0.00 0.00 41 1001.4
20260504215304 81 258 0.9 4.3 0.00 0.00 0.00 43 1001.1
20260504214802 81 265 1.7 5.2 0.00 0.00 0.00 43 1001.7
20260504214748 81 250 1.7 1.7 0.00 0.00 0.00 43 1001.5
20260504213951 81 283 0.9 3.5 0.00 0.00 0.00 42 1001.8
20260504213232 81 249 3.5 3.5 0.00 0.00 0.00 42 1001.7
20260504212702 81 258 1.7 6.1 0.00 0.00 0.00 42 1001.9
20260504212202 81 252 0.9 4.3 0.00 0.00 0.00 42 1001.9
20260504211702 82 293 4.3 5.2 0.00 0.00 0.00 41 1001.8
20260504211202 82 261 1.7 2.6 0.00 0.00 0.00 42 1001.6
20260504210702 83 254 0.9 1.7 0.00 0.00 0.00 41 1001.7
20260504210202 83 223 0.0 4.3 0.00 0.00 0.00 41 1001.9
20260504205702 83 242 1.7 4.3 0.00 0.00 0.00 40 1001.9
20260504205132 83 276 0.9 2.6 0.00 0.00 0.00 42 1002.0
20260504204632 84 258 1.7 4.3 0.00 0.00 0.00 40 1001.8
20260504204102 84 276 0.9 4.3 0.00 0.00 0.00 39 1001.9
20260504203602 84 249 4.3 4.3 0.00 0.00 0.00 38 1001.9
20260504203321 84 263 1.7 3.5 0.00 0.00 0.00 39 1002.3
20260504202532 84 240 2.6 3.5 0.00 0.00 0.00 40 1002.2
20260504202032 84 285 2.6 4.3 0.00 0.00 0.00 39 1002.0
20260504201532 85 252 2.6 4.3 0.00 0.00 0.00 39 1002.2
20260504201032 84 283 1.7 3.5 0.00 0.00 0.00 41 1001.9
20260504201018 84 260 1.7 4.3 0.00 0.00 0.00 41 1002.3
20260504200032 83 237 3.5 3.5 0.00 0.00 0.00 41 1002.1
20260504195502 84 252 2.6 3.5 0.00 0.00 0.00 41 1002.2
20260504194932 84 262 1.7 5.2 0.00 0.00 0.00 38 1002.0
20260504194432 83 271 0.9 2.6 0.00 0.00 0.00 40 1002.0
20260504193902 83 225 3.5 3.5 0.00 0.00 0.00 39 1002.2
20260504193332 83 264 1.7 2.6 0.00 0.00 0.00 38 1002.4
20260504192832 83 286 3.5 3.5 0.00 0.00 0.00 40 1002.1
20260504192304 82 179 1.7 3.5 0.00 0.00 0.00 38 1002.5
20260504191803 82 295 0.0 3.5 0.00 0.00 0.00 41 1002.4
20260504191303 82 287 2.6 4.3 0.00 0.00 0.00 41 1002.4
20260504190803 82 230 2.6 4.3 0.00 0.00 0.00 41 1002.2
20260504190303 81 272 1.7 4.3 0.00 0.00 0.00 41 1002.4
20260504185803 81 297 0.0 4.3 0.00 0.00 0.00 43 1002.6
20260504185455 81 277 0.0 4.3 0.00 0.00 0.00 40 1002.7
20260504184232 80 233 0.0 5.2 0.00 0.00 0.00 42 1002.5
20260504184219 80 243 3.5 3.5 0.00 0.00 0.00 42 1002.6
20260504183202 80 277 2.6 4.3 0.00 0.00 0.00 40 1002.7
20260504182702 80 248 1.7 5.2 0.00 0.00 0.00 41 1002.9
20260504182132 80 216 0.0 2.6 0.00 0.00 0.00 45 1002.7
20260504181632 79 232 3.5 4.3 0.00 0.00 0.00 42 1003.2
20260504181132 79 257 2.6 3.5 0.00 0.00 0.00 43 1002.9
20260504180602 79 231 1.7 3.5 0.00 0.00 0.00 43 1003.0
20260504175750 79 254 1.7 2.6 0.00 0.00 0.00 43 1003.0
20260504175032 78 249 1.7 3.5 0.00 0.00 0.00 44 1003.1
20260504174502 79 249 2.6 4.3 0.00 0.00 0.00 42 1003.2
20260504174002 79 213 1.7 3.5 0.00 0.00 0.00 42 1003.1
20260504173722 78 286 0.9 4.3 0.00 0.00 0.00 42 1003.2
20260504173002 78 188 2.6 5.2 0.00 0.00 0.00 48 1003.4
20260504172432 78 274 1.7 4.3 0.00 0.00 0.00 43 1003.4
20260504171932 78 267 0.9 7.0 0.00 0.00 0.00 44 1003.5
20260504171432 78 257 1.7 3.5 0.00 0.00 0.00 43 1003.6
20260504160202 75 257 2.6 3.5 0.00 0.00 0.00 44 1003.4
20260504151032 72 242 2.6 6.1 0.00 0.00 0.00 47 1003.8
20260504150532 72 264 4.3 5.2 0.00 0.00 0.00 48 1003.9
20260504141232 67 222 2.6 3.5 0.00 0.00 0.00 54 1004.0
20260504140732 67 146 1.7 3.5 0.00 0.00 0.00 54 1004.2
20260504140232 67 327 0.0 1.7 0.00 0.00 0.00 54 1004.1
20260504130602 65 188 0.0 2.6 0.00 0.00 0.00 55 1003.8